TJS-3 AKM, 43917

Orbit data source: Space-Track

TJS-3 AKM, 43917 is space debris in GEO originally from a launch on Mon, 24 Dec 2018 UTC via a CHANG ZHENG 3C launch vehicle from the Xichang Space Center, China (XSC). Debris objects in space refer to the collection of defunct objects orbiting the Earth. Examples of debris include non-operational satellites, rocket bodies, and fragments generated from explosions, collisions, or faulty payload assembly.

Loading next visibility...
Identifier
43917, 2018-110C
Orbit
GEO
Country
Flag of CNCN / PRC
Related business
Manufacturer
CAST
Mission
Non-operational Defense Technology
Bus & Motor
Unknown
Mass
~500 kg wet, ~500 kg dry
Launch date (UTC)
2018-12-24 (8 years ago)
Launch vehicle
CHANG ZHENG 3C
Launch site
Xichang Space Center, China (XSC)
Object type
Payload
Rocket body
Debris
Shape & HBR
Box, 0.5 m
Radar Cross Section
1.500 m², Large (>1 m²)

Expand to show TLE details & history
Last TLE update: 18 hours ago

TLE from 18 hours ago
0 TJS-3 AKM
1 43917U 18110C   26206.36661168 -.00000030  00000-0  00000-0 0  9992
2 43917   4.7763  77.9574 0006127 116.3543 100.3190  0.98355353 27410
Epoch: 2026-07-25T08:47Z
TLE epoch observation values (Epoch: 2026-07-25T08:47:55.249Z)
Latitude
-2.87647°
Longitude
-140.44432°
Altitude
36,337.223 km
Speed
3.055 km/s
True Right ascension
19h 38m 27s
True Declination
-2° 52' 25"
Sunlit
Object was in daylight at epoch
Visualization orbit readout
Latitude
Unknown
Longitude
Unknown
Altitude
Unknown
Speed
Unknown
Apparent Right ascension
Unknown
Apparent Declination
Unknown
Sunlit
N/A
Visualization observer readout
Local Sidereal Time
16:22:36
Azimuth
Unknown
Elevation
Unknown
Doppler factor
Unknown
Orbital elements
Apogee altitude
36,359.761 km
Perigee altitude
36,307.422 km
Semi-major axis
42,711.729 km
Eccentricity
0.00061
Inclination
4.7763°
RAAN
77.9574°
Arg. of periapsis
116.3543°
True anomaly
100.38807°
Mean anomaly
100.319°
Eccentric anomaly
100.35353°
Mean motion
0.24588 °/min
Orbital period
1,464.13 mins
BSTAR
0
Loading maneuver chart data...
Computing Atmospheric mass density...
Loading historical data...
Loading historical data...
Loading historical data...
Loading historical data...
Loading historical data...
Loading historical data...
Loading historical data...
Other satellites on launch #110 in the year 2018 (2018-12-24 UTC)

Documentation

Showing up to 5 results
|